Torna al catalogo

COSMOS 2251 DEB

AttivoLEO
NORAD 34972·DEBRIS·🇷🇺 Russia

Lanciato Jun 16, 1993 da Plesetsk Cosmodrome

Loading…

Prossimi Passaggi (prossime 24 ore)

TLE

AggiornatoSource: Space-Track

Epoca: Sep 13, 2026, 21:57 UTC

1 34972U 93036AFB 26256.91491260  .00006939  00000-0  96719-3 0  9991
2 34972  73.9860 229.9809 0034478 311.9402  78.6013 14.77504459917092

Traccia COSMOS 2251 DEB in tempo reale con AllMySat

Download on the App Store